Regional Weather Roundup
Issued by NWS Sterling, VA

Home | Current Version | Previous Version | Text Only | Print | Product List | Glossary Off
Versions: 1 2 3 4 5 6 7 8 9 10 11 12 13 14 15 16 17 18 19 20 21 22 23 24 25 26

000
ASUS41 KLWX 260610
RWRLWX

REGIONAL WEATHER ROUNDUP
NATIONAL WEATHER SERVICE BALTIMORE MD/WASHINGTON DC
200 AM EDT THU MAY 26 2016

Note: "FAIR" indicates few or no clouds below 12,000 feet
with no significant weather and/or obstructions to visibility.
 TC=TEMPERATURE CELSIUS

 * =Non NWS site. Station does not report precipitation (e.g. rain,
    snow, etc.), thunder, or fog.

DCZ001-MDZ009-015-VAZ040>042-051-053>054-260700-
WASHINGTON METRO

CITY           SKY/WX    TMP DP  RH WIND       PRES   REMARKS
WASHINGTON NAT MOCLDY    66  61  84 S6        30.11F
DULLES         FAIR      61  55  81 CALM      30.11F
ANDREWS AFB    CLEAR     63  56  79 S5        30.11S
FT BELVOIR     FAIR      58  57  95 CALM      30.11F FOG
QUANTICO       FAIR      63  60  90 NW6       30.12F
COLLEGE PARK*  FAIR      59  55  88 CALM      30.11S
LEESBURG*      FAIR      61  61 100 CALM      30.12S
MANASSAS*      FAIR      59  57  94 CALM      30.11F

$$

MDZ006>007-011-014-260700-
BALTIMORE METRO

CITY           SKY/WX    TMP DP  RH WIND       PRES   REMARKS
BWI AIRPORT    MOCLDY    59  56  89 W5        30.10S
MD SCIENCE CTR   N/A     70  54  56 MISG      30.10S
MARTIN STATE   CLOUDY    63  63 100 CALM      30.11S
ANNAPOLIS      CLEAR     64  59  83 CALM      30.10S
FORT MEADE*    CLEAR     55  54  94 CALM      30.13F

$$

MDZ012-015-019>023-260700-
MARYLAND EASTERN SHORE

CITY           SKY/WX    TMP DP  RH WIND       PRES   REMARKS
OCEAN CITY     CLOUDY    63  59  87 S3        30.13S
SALISBURY      CLOUDY    60  56  86 SE5       30.12F
BAY BRIDGE AP* CLEAR     68  57  68 S3        30.11S
CAMBRIDGE*       N/A     61  59  94 CALM      30.12S
EASTON*        CLOUDY    67  61  79 CALM      30.15S

$$

MDZ017>025-260700-
SOUTHERN MARYLAND

CITY           SKY/WX    TMP DP  RH WIND       PRES   REMARKS
PATUXENT RIVER PTCLDY    66  57  72 SW3       30.12S
ST INIGOES     CLEAR     62  59  90 CALM      30.12S
LEONARDTOWN*   CLEAR     61  55  82 CALM      30.14S

$$

MDZ003>005-260700-
NORTH CENTRAL MARYLAND

CITY           SKY/WX    TMP DP  RH WIND       PRES   REMARKS
FREDERICK*     CLOUDY    59  59 100 SE3       30.13F
HAGERSTOWN APT CLOUDY    69  53  56 SE6       30.11S
WESTMINSTER*   CLOUDY    66  63  88 CALM      30.12F

$$

MDZ501>502-260700-
WESTERN MARYLAND

CITY           SKY/WX    TMP DP  RH WIND       PRES   REMARKS
OAKLAND*       PTCLDY    63  48  59 S3        30.21F
CUMBERLAND*    PTCLDY    59  55  88 CALM      30.17S

$$

VAZ025>031-260700-
SHENANDOAH VALLEY

CITY           SKY/WX    TMP DP  RH WIND       PRES   REMARKS
WINCHESTER*    FAIR      61  55  82 CALM      30.11F
FRONT ROYAL*   FAIR      59  55  88 CALM      30.12S
LURAY*         FAIR      59  59 100 CALM      30.13F
NEW MARKET*    FAIR      58  57  96 CALM      30.13F
STAUNTON*      FAIR      58  56  94 CALM      30.17S FOG
WAYNESBORO*    FAIR      61  55  81 CALM      30.16S

$$

WVZ021-048>050-054>055-260700-
EASTERN WEST VIRGINIA PANHANDLE

CITY           SKY/WX    TMP DP  RH WIND       PRES   REMARKS
MARTINSBURG    FAIR      59  55  87 SW3       30.10S
PETERSBURG*    FAIR      58  57  98 CALM      30.15F

$$

VAZ036>039-050-260700-
CENTRAL FOOTHILLS

CITY           SKY/WX    TMP DP  RH WIND       PRES   REMARKS
CHARLOTTESVILL FAIR      63  57  81 NW3       30.12F
CULPEPER*      FAIR      58  58 100 CALM      30.12F
ORANGE*        FAIR      61  61 100 CALM      30.14S
GORDONSVILLE*  FAIR      59  58  97 CALM      30.12F
WARRENTON*     FAIR      58  53  84 CALM      30.11F

$$

VAZ055>057-260700-
NORTH AND CENTRAL PIEDMONT

CITY           SKY/WX    TMP DP  RH WIND       PRES   REMARKS
FREDERICKSBRG* NOT AVBL
STAFFORD*      FAIR      56  55  95 CALM      30.16S

$$

NCZ024-NYZ072-PAZ021-071-VAZ022-071-260700-
OTHER REGIONAL OBSERVATIONS

CITY           SKY/WX    TMP DP  RH WIND       PRES   REMARKS
NEW YORK CITY  PTCLDY    74  47  38 CALM      30.09S
PHILADELPHIA   CLOUDY    68  55  63 SW7       30.10S
PITTSBURGH     CLOUDY    69  57  65 SE5       30.10F
ROANOKE        FAIR      69  58  67 CALM      30.16F
RICHMOND       FAIR      62  58  86 CALM      30.13S
RALEIGH        MOCLDY    69  60  73 SW7       30.15F

$$

ANZ530>537-260700-
MARINE OBSERVATIONS

STATION/POSITION TIME  TEMP    WIND        PRES
                       AIR SEA DIR/SP/G
                 (UTC) (F)     (DEG/KT/KT) (MB)
THOMAS PT LIGHT  0600   67 65  200/  9/ 10 1020.7F
BALT KEY BRIDGE  0500   71     230/  4/  5 1019.2F
COVE POINT       0500   69     200/  5/  5 1020.4S
LEWISETTA        0500   70 70  220/  5/  6 1019.7S
SOLOMONS ISLAND  0500   65 64   CALM  /  1   N/A
PINEY POINT      0500          110/  4/  4   N/A

$$





USA.gov is the U.S. government's official web portal to all federal, state and local government web resources and services.